Flag for Sweden Weather past 2 weeks in Gothenburg, Sweden

Now
50 °F

Drizzle. Partly sunny.


Feels Like: 45 °F
Forecast: 46 / 54 °F
Wind: 13 mph from Southeast

Location: Gothenburg / Save

Current Time: May 28, 2015 at 9:03:08 AM

Latest Report: May 28, 2015 at 8:20 AM


Visibility: N/A

Pressure: 29.74 "Hg

Humidity: 76%

Dew point: 43 °F

Location of GothenburgLocation

Historic Weather in Gothenburg — Graph

°F

Gothenburg temperature yesterday

Maximum temperature yesterday: 55 °F (at 1:20 PM)
Minimum temperature yesterday: 48 °F (at 12:20 AM)
Average temperature yesterday: 52 °F

Past Weeks' High & Low Weather Summary

 TemperatureHumidityPressure
High57 °F (May 14, 3:50 PM)100% (May 13, 10:20 PM)30.15 "Hg (May 13, 10:20 PM)
Low36 °F (May 15, 2:50 AM)33% (May 15, 5:20 PM)29.45 "Hg (May 19, 4:50 AM)
Average50 °F75%29.86 "Hg
* Reported May 13 7:20 AM — May 28 7:50 AM, Gothenburg, Weather by CustomWeather, © 2015

Note: Actual official high and low records may vary slightly from our data, if they occured in-between our weather recording intervals... More about our weather records

Advertising

Gothenburg weather history for previous 24 hours

 ConditionsComfort  
Time TempWeatherWind HumidityBarometerVisibility
7:50 AM
Thu, May 28
50 °FLight rain. Clear.10 mph76%29.77 "HgN/A
7:20 AM50 °FPartly sunny.9 mph71%29.77 "HgN/A
6:50 AM48 °FPartly sunny.8 mph82%29.80 "HgN/A
6:20 AM48 °FSunny.6 mph82%29.80 "Hg10 mi
5:50 AM48 °FSunny.5 mph82%29.80 "Hg10 mi
5:29 AM46 °FSunny.5 mph82%29.83 "Hg10 mi
4:50 AM46 °FClear.5 mph87%29.83 "Hg10 mi
4:20 AM46 °FClear.6 mph87%29.83 "Hg10 mi
3:50 AM48 °FPassing clouds.8 mph82%29.86 "HgN/A
3:20 AM46 °FMostly cloudy.8 mph87%29.86 "HgN/A
2:50 AM46 °FPassing clouds.8 mph87%29.86 "HgN/A
2:20 AM46 °FPartly cloudy.9 mph87%29.89 "HgN/A
1:50 AM45 °FPassing clouds.7 mph93%29.89 "HgN/A
1:20 AM45 °FPassing clouds.5 mph87%29.89 "HgN/A
12:50 AM46 °FPassing clouds.5 mph87%29.89 "HgN/A
12:20 AM48 °FPassing clouds.8 mph82%29.89 "HgN/A
11:50 PM
Wed, May 27
50 °FPassing clouds.13 mph76%29.92 "HgN/A
11:20 PM50 °FPassing clouds.12 mph76%29.92 "HgN/A
10:50 PM50 °FScattered clouds.12 mph76%29.92 "HgN/A
10:20 PM50 °FPassing clouds.10 mph76%29.92 "HgN/A
9:50 PM50 °FScattered clouds.13 mph82%29.92 "HgN/A
9:20 PM50 °FPassing clouds.13 mph82%29.92 "HgN/A
8:50 PM52 °FSunny.12 mph77%29.92 "Hg10 mi
8:20 PM54 °FSunny.10 mph72%29.92 "Hg10 mi
7:50 PM54 °FSunny.14 mph72%29.92 "Hg10 mi
7:20 PM54 °FSunny.16 mph72%29.92 "Hg10 mi
6:50 PM54 °FSunny.17 mph72%29.92 "Hg10 mi
6:20 PM55 °FSunny.13 mph67%29.92 "Hg10 mi
5:50 PM54 °FSunny.16 mph72%29.92 "Hg10 mi
5:20 PM55 °FSunny.15 mph67%29.92 "Hg10 mi
4:50 PM55 °FSunny.15 mph67%29.92 "Hg10 mi
4:20 PM55 °FSunny.13 mph67%29.92 "Hg10 mi
3:50 PM54 °FSunny.16 mph72%29.92 "Hg10 mi
3:20 PM55 °FSunny.17 mph67%29.92 "Hg10 mi
2:50 PM55 °FPassing clouds.16 mph67%29.92 "HgN/A
2:20 PM55 °FPassing clouds.16 mph67%29.92 "HgN/A
1:50 PM55 °FPassing clouds.16 mph67%29.92 "HgN/A
1:20 PM55 °FPassing clouds.17 mph63%29.92 "HgN/A
12:50 PM54 °FPassing clouds.17 mph67%29.92 "HgN/A
12:20 PM54 °FPassing clouds.16 mph67%29.92 "HgN/A
11:50 AM54 °FPassing clouds.16 mph67%29.92 "HgN/A
11:20 AM54 °FPassing clouds.16 mph67%29.92 "HgN/A
10:50 AM54 °FPassing clouds.16 mph63%29.92 "HgN/A
10:20 AM54 °FPassing clouds.16 mph67%29.89 "HgN/A
9:50 AM54 °FPassing clouds.15 mph63%29.89 "HgN/A
9:20 AM54 °FPassing clouds.15 mph63%29.89 "HgN/A
Weather by CustomWeather, © 2015

See weather overviewHow to use our weather pages